Location: Ch�risy
(50.2331°N, 2.9131°E)
Time: 01:54:10
(UTC+00:00)

CZ-2C R/B - Pass Details

Date: 17 January 2021
Orbit: 785 x 870 km, 98.2° (Epoch: 28 February)

Event Time Altitude Azimuth Distance (km) Brightness Sun altitude
Exits shadow 18:43:13 33° 137° (SE) 1,400 3.5 -22.7°
Drops below altitude 10° 18:46:47 10° 167° (SSE) 2,498 5.1 -23.3°
Sets 18:49:18 0° 175° (S) 3,437 5.9 -23.7°
